{"data":{"norad_id":87029,"intl_designator":"","name":"UNKNOWN","alt_names":[],"object_type":"UNKNOWN","status":"UNKNOWN","operator":null,"country":null,"launch_date":null,"launch_site_code":null,"launch_vehicle":null,"mission":null,"orbit_class":"UNKNOWN","rcs_meters":null,"size_class":null,"mass_kg":null,"dimensions":null,"purposes":[],"wikipedia_slug":null,"has_3d_model":false,"image_url":null,"decayed_at":null,"tle_current":{"epoch":"2026-09-17T07:12:35.122464Z","epoch_age_seconds":291627,"freshness":"STALE","line1":"1 87029U          26260.30040651  .00000976  00000+0  61350-3 0  9990","line2":"2 87029  98.7329 290.4190 0081939 187.4301 172.5659 14.05032413632116","mean_motion":14.05032413,"eccentricity":0.0081939,"inclination_deg":98.7329,"raan_deg":290.419,"arg_perigee_deg":187.4301,"mean_anomaly_deg":172.5659,"bstar":0.0006135,"rev_number":63211,"period_min":102.48873881317,"perigee_km":816.97768891253,"apogee_km":935.86393139375,"semimajor_km":7254.5578101531,"source":"CELESTRAK","updated_at":"2026-09-20T09:00:32.449128Z"}}}